Change the Weather History Date:

Thursday, February 13, 2014

  Actual Average Record
Temperature  
Mean Temperature 75 °F -  
Max Temperature 84 °F - - ()
Min Temperature 66 °F - - ()
Cooling Degree Days 10    
Growing Degree Days 25 (Base 50)    
Moisture  
Dew Point 66 °F    
Average Humidity 70    
Maximum Humidity 88    
Minimum Humidity 47    
Precipitation  
Precipitation 0.01 in - - ()
Sea Level Pressure  
Sea Level Pressure 29.93 in    
Wind  
Wind Speed 6 mph ()    
Max Wind Speed 15 mph    
Max Gust Speed 18 mph    
Visibility 6.2 miles    
Events      
T = Trace of Precipitation, MM = Missing Value Source: Averaged Metar Reports

Daily Weather History Graph

Daily Weather History Graph

Search for Another Location

Airport or City:

Trip Planner

Search our weather history database for the weather conditions in past years. The results will help you decide how hot, cold, wet, or windy it might be!

Date:

Astronomy

Feb. 13, 2014 Rise Set
Actual Time 5:26 AM AEST 6:33 PM AEST
Civil Twilight 5:02 AM AEST 6:57 PM AEST
Nautical Twilight 4:33 AM AEST 7:26 PM AEST
Astronomical Twilight 4:03 AM AEST 7:56 PM AEST
Moon 5:11 PM AEST (2/13) 3:41 AM AEST (2/13)
Length of Visible Light 13h 55m
Length of Day
13h 06m
Waxing Gibbous, 97% of the Moon is Illuminated
Feb 13
Waxing Gibbous
Feb 15
Full
Feb 23
Last Quarter
Mar 1
New
Mar 8
First Quarter

Hourly Weather History & Observations

Time (AEST) Temp. Heat Index Dew Point Humidity Pressure Visibility Wind Dir Wind Speed Gust Speed Precip Events Conditions
12:00 AM 69 °F - 65 °F 82% 30.01 in - SW 3.5 mph - -  
12:00 AM 69.8 °F - 64.4 °F 83% 30.01 in 6.2 mi SW 3.5 mph - N/A   Scattered Clouds
12:30 AM 69.8 °F - 66.2 °F 88% 30.01 in 6.2 mi SW 3.5 mph - N/A   Overcast
1:00 AM 69.8 °F - 64.4 °F 83% 29.98 in 6.2 mi West 4.6 mph - N/A   Overcast
1:30 AM 69.8 °F - 64.4 °F 83% 29.98 in 6.2 mi WSW 5.8 mph - N/A   Overcast
2:00 AM 69.8 °F - 66.2 °F 88% 29.95 in 6.2 mi SSW 3.5 mph - N/A   Overcast
2:30 AM 69.8 °F - 64.4 °F 83% 29.95 in 6.2 mi SW 3.5 mph - N/A   Mostly Cloudy
3:00 AM 69 °F - 65 °F 85% 29.95 in - SW 3.5 mph - -  
3:00 AM 69.8 °F - 66.2 °F 88% 29.95 in 6.2 mi SW 3.5 mph - N/A   Mostly Cloudy
3:30 AM 68.0 °F - 64.4 °F 88% 29.95 in 6.2 mi SSW 3.5 mph - N/A   Unknown
4:00 AM 68.0 °F - 64.4 °F 88% 29.92 in 6.2 mi WSW 3.5 mph - N/A   Unknown
4:30 AM 68.0 °F - 64.4 °F 88% 29.92 in 6.2 mi WSW 5.8 mph - N/A   Scattered Clouds
5:00 AM 68.0 °F - 64.4 °F 88% 29.95 in 6.2 mi South 4.6 mph - N/A   Overcast
5:30 AM 68.0 °F - 64.4 °F 88% 29.95 in 6.2 mi Calm Calm - N/A   Overcast
6:00 AM 69 °F - 65 °F 84% 29.96 in - WSW 5.8 mph - -   Overcast
6:00 AM 68.0 °F - 64.4 °F 88% 29.95 in 6.2 mi WSW 5.8 mph - N/A   Overcast
6:30 AM 69.8 °F - 66.2 °F 88% 29.95 in 6.2 mi SSW 3.5 mph - N/A   Overcast
7:00 AM 71.6 °F - 66.2 °F 83% 29.95 in 6.2 mi WSW 4.6 mph - N/A   Overcast
7:30 AM 73.4 °F - 66.2 °F 78% 29.98 in 6.2 mi SW 5.8 mph - N/A   Overcast
8:00 AM 77.0 °F - 64.4 °F 65% 29.98 in 6.2 mi SW 4.6 mph - N/A   Scattered Clouds
8:30 AM 78.8 °F - 64.4 °F 61% 29.98 in 6.2 mi WSW 4.6 mph - N/A   Mostly Cloudy
9:00 AM 80 °F - 64 °F 49% 29.98 in - SW 5.8 mph - -  
9:00 AM 80.6 °F 82.3 °F 64.4 °F 58% 29.98 in 6.2 mi SW 5.8 mph - N/A   Scattered Clouds
9:30 AM 80.6 °F 82.3 °F 64.4 °F 58% 29.98 in 6.2 mi NNW 4.6 mph - N/A   Scattered Clouds
10:00 AM 82.4 °F 84.6 °F 66.2 °F 58% 29.95 in 6.2 mi NNE 8.1 mph - N/A   Overcast
10:30 AM 80.6 °F 82.7 °F 66.2 °F 61% 29.95 in 6.2 mi ENE 10.4 mph - N/A   Overcast
11:00 AM 84.2 °F 86.6 °F 66.2 °F 55% 29.95 in 6.2 mi ESE 13.8 mph - N/A   Mostly Cloudy
11:30 AM 84.2 °F 87.3 °F 68.0 °F 58% 29.95 in 6.2 mi ESE 13.8 mph - N/A   Scattered Clouds
12:00 PM 84 °F - 67 °F 47% 29.94 in - SE 12.7 mph - -  
12:00 PM 84.2 °F 86.6 °F 66.2 °F 55% 29.92 in 6.2 mi SE 12.7 mph - N/A   Unknown
12:30 PM 84.2 °F 87.3 °F 68.0 °F 58% 29.92 in 6.2 mi ESE 5.8 mph 18.4 mph N/A   Scattered Clouds
1:00 PM 84.2 °F 88.4 °F 69.8 °F 62% 29.92 in - East 15.0 mph - N/A   Unknown
1:30 PM 82.4 °F 85.4 °F 68.0 °F 62% 29.92 in 6.2 mi ESE 12.7 mph - N/A   Scattered Clouds
2:00 PM 80.6 °F 82.7 °F 66.2 °F 61% 29.89 in 6.2 mi East 13.8 mph - N/A   Overcast
2:30 PM 80.6 °F 82.7 °F 66.2 °F 61% 29.89 in 6.2 mi ESE 11.5 mph - N/A   Overcast
3:00 PM 80 °F - 66 °F 53% 29.89 in - ESE 12.7 mph - -  
3:00 PM 80.6 °F 82.7 °F 66.2 °F 61% 29.89 in 6.2 mi ESE 12.7 mph - N/A   Mostly Cloudy
3:30 PM 78.8 °F - 66.2 °F 65% 29.89 in 6.2 mi East 8.1 mph - N/A   Scattered Clouds
4:00 PM 78.8 °F - 64.4 °F 61% 29.86 in 6.2 mi ENE 10.4 mph - N/A   Overcast
4:30 PM 78.8 °F - 64.4 °F 61% 29.86 in 6.2 mi ENE 9.2 mph - N/A   Overcast
5:00 PM 78.8 °F - 64.4 °F 61% 29.86 in 6.2 mi ENE 10.4 mph - N/A   Overcast
5:30 PM 77.0 °F - 66.2 °F 69% 29.86 in 6.2 mi ENE 9.2 mph - N/A   Overcast
6:00 PM 77 °F - 65 °F 59% 29.88 in - ENE 9.2 mph - -   Overcast
6:00 PM 77.0 °F - 66.2 °F 69% 29.86 in 6.2 mi ENE 9.2 mph - N/A   Overcast
6:30 PM 77.0 °F - 66.2 °F 69% 29.86 in 6.2 mi ENE 10.4 mph - N/A   Overcast
7:00 PM 77.0 °F - 66.2 °F 69% 29.86 in 6.2 mi NE 9.2 mph - N/A   Overcast
7:30 PM 77.0 °F - 66.2 °F 69% 29.89 in 6.2 mi NE 8.1 mph - N/A   Overcast
8:00 PM 77.0 °F - 66.2 °F 69% 29.89 in 6.2 mi NE 8.1 mph - N/A   Overcast
8:30 PM 77.0 °F - 66.2 °F 69% 29.89 in 6.2 mi NE 8.1 mph - N/A   Overcast
9:00 PM 77 °F - 67 °F 63% 29.91 in - NE 9.2 mph - -   Overcast
9:00 PM 77.0 °F - 66.2 °F 69% 29.89 in 6.2 mi NE 9.2 mph - N/A   Overcast
9:30 PM 77.0 °F - 66.2 °F 69% 29.89 in 6.2 mi NNE 6.9 mph - N/A   Overcast
10:00 PM 77.0 °F - 66.2 °F 69% 29.89 in 6.2 mi NNE 6.9 mph - N/A   Overcast
10:30 PM 77.0 °F - 66.2 °F 69% 29.89 in 6.2 mi NNE 6.9 mph - N/A   Overcast
11:00 PM 77.0 °F - 66.2 °F 69% 29.89 in 6.2 mi North 8.1 mph - N/A   Overcast
11:30 PM 77.0 °F - 66.2 °F 69% 29.86 in 6.2 mi North 6.9 mph - N/A   Overcast